Regional Weather Roundup
Issued by NWS Cleveland, OH

Home | Current Version | Previous Version | Graphics & Text | Print | Product List | Glossary On
Versions: 1 2 3 4 5 6 7 8 9 10 11 12 13 14 15 16 17 18 19 20 21 22 23 24 25 26 27 28 29 30 31 32 33 34 35 36 37 38 39 40 41 42 43 44 45 46 47 48 49 50
000
ASUS41 KCLE 260310
RWRCLE
OHIO REGIONAL WEATHER ROUNDUP
NATIONAL WEATHER SERVICE CLEVELAND, OH
1000 PM EST THU DEC 25 2014

NOTE: "FAIR" INDICATES FEW OR NO CLOUDS BELOW 12,000 FEET WITH NO
SIGNIFICANT WEATHER AND/OR OBSTRUCTIONS TO VISIBILITY.

OHZ001>008-015>018-024>027-034-035-043-044-260400-
   NORTHWEST OHIO

CITY           SKY/WX    TMP DP  RH WIND       PRES   REMARKS
DEFIANCE       PTCLDY    34  30  85 S5        30.13S WCI  30
FINDLAY        CLEAR     33  29  85 S8        30.14F WCI  26
TOLEDO EXPRESS PTCLDY    34  29  82 S5        30.13S WCI  30
TOLEDO EXEC    PTCLDY    35  29  78 S9        30.15S WCI  28
LIMA           CLEAR     36  29  75 S8        30.14S
$$

OHZ009>014-019>023-028>033-038-089-260400-
   NORTHEAST OHIO

CITY           SKY/WX    TMP DP  RH WIND       PRES   REMARKS
CLE-HOPKINS    CLOUDY    38  29  70 SW10      30.20S
CLE-LAKEFRONT  CLOUDY    40  30  67 SW17G24   30.17F
CUY CO. ARPT   MOCLDY    41  32  70 W12       30.18S
LORAIN-ELYRIA  MOCLDY    36  30  79 SW10      30.17F
ASHTABULA      CLOUDY    38  29  70 SW10      30.18R
AKRON-CANTON   CLOUDY    38  28  67 SW9       30.19R
WOOSTER        CLOUDY    36  30  79 SW7       30.18F
MANSFIELD      MOCLDY    35  29  78 S10       30.16F WCI  27
YOUNGSTOWN     CLOUDY    37  29  72 SW12      30.17S
$$

OHZ042-051>053-060>062-070>072-077>081-260400-
  SOUTHWEST OHIO

CITY           SKY/WX    TMP DP  RH WIND       PRES   REMARKS
CINC-COVINGTON CLEAR     35  28  75 S8        30.18F WCI  29
CINC-LUNKEN    CLEAR     29  29 100 CALM      30.22F
HAMILTON       CLEAR     34  30  85 SE3       30.21S
DAYTON         CLEAR     35  30  82 S10       30.18S WCI  27
WRIGHT-PAT AFB CLEAR     34  30  86 SE8       30.18S WCI  27
DAYTON GENERAL CLEAR     34  30  85 S9        30.18S WCI  27
WILMINGTON     CLEAR     33  28  81 S7        30.19F WCI  27
$$

OHZ036-037-039>041-045>050-054>059-063>069-073>076-082>088-260400-
  CENTRAL AND SOUTHEAST OHIO

CITY           SKY/WX    TMP DP  RH WIND       PRES   REMARKS
COLUMBUS       MOCLDY    37  30  75 S6        30.21S
OSU AIRPORT    PTCLDY    36  29  75 S7        30.19F
BOLTON FIELD   PTCLDY    34  31  90 SE7       30.20F WCI  28
RICKENBACK AFB PTCLDY    34  30  85 S7        30.21F WCI  28
NEWARK         CLOUDY    38  30  73 SW7       30.21S
MARION         PTCLDY    34  28  79 S8        30.18F WCI  27
LANCASTER      MOCLDY    37  30  75 S5        30.23R
ZANESVILLE     CLOUDY    38  28  67 SW8       30.23R
NEW PHILLY     CLOUDY    40  30  67 S3        30.23R
$$


USA.gov is the U.S. government's official web portal to all federal, state and local government web resources and services.